GW6744 Weather Reports


Display with metric or nautical units.
time (UTC)temp
F
wind
direction
speed
MPH
gust
MPH
rain 1hr
in
rain 24hr
in
rain mn
in
humidity
%
barometer
mb
20260906200050 91 160 4.0 11.0 0.00 0.04 0.04 49 1014.3
20260906194557 89 160 5.0 10.0 0.00 0.04 0.04 54 1014.6
20260906193055 87 95 4.0 11.0 0.00 0.04 0.04 57 1015.0
20260906191552 86 119 5.0 11.0 0.00 0.04 0.04 59 1015.1
20260906190050 83 55 3.0 11.0 0.00 0.04 0.04 64 1015.2
20260906184559 81 48 3.0 9.0 0.00 0.04 0.04 68 1015.6
20260906183058 80 151 3.0 9.0 0.00 0.04 0.04 71 1016.0
20260906181559 78 51 4.0 8.0 0.00 0.04 0.04 73 1016.1
20260906174558 77 83 2.0 7.0 0.00 0.04 0.04 77 1017.0
20260906173052 77 96 1.0 6.0 0.00 0.04 0.04 77 1017.4
20260906171557 76 54 2.0 5.0 0.00 0.04 0.04 78 1017.8
20260906170058 76 350 2.0 8.0 0.00 0.04 0.04 79 1017.9
20260906164554 76 358 2.0 6.0 0.01 0.04 0.04 79 1017.9
20260906163100 76 8 3.0 8.0 0.03 0.04 0.04 84 1018.3
20260906161550 76 355 2.0 5.0 0.04 0.04 0.04 83 1018.6
20260906160050 76 21 1.0 3.0 0.04 0.04 0.04 86 1018.8
20260906154559 75 0 0.0 1.0 0.03 0.03 0.03 85 1018.8
20260906153052 75 340 1.0 4.0 0.01 0.01 0.01 81 1018.3
20260906151550 76 11 1.0 2.0 0.00 0.00 0.00 78 1018.1
20260906150046 76 351 1.0 4.0 0.00 0.00 0.00 76 1018.2
20260906144552 76 50 2.0 4.0 0.00 0.00 0.00 77 1018.0
20260906143050 76 20 2.0 8.0 0.00 0.00 0.00 76 1018.1
20260906141549 76 23 2.0 9.0 0.00 0.00 0.00 75 1017.9
20260906140055 76 9 4.0 9.0 0.00 0.00 0.00 75 1017.9
20260906134551 76 359 4.0 10.0 0.00 0.00 0.00 76 1017.9
20260906133046 75 7 2.0 9.0 0.00 0.00 0.00 76 1018.0
20260906131553 76 89 5.0 13.0 0.00 0.00 0.00 74 1017.8
20260906130053 76 1 2.0 8.0 0.00 0.00 0.00 70 1017.6
20260906124549 75 334 1.0 3.0 0.00 0.00 0.00 71 1017.6
20260906123056 74 297 1.0 7.0 0.00 0.00 0.00 73 1017.2
20260906121556 73 0 0.0 0.0 0.00 0.00 0.00 76 1016.1
20260906120111 73 0 0.0 1.0 0.00 0.00 0.00 75 1016.0
20260906114548 74 0 0.0 0.0 0.00 0.00 0.00 72 1015.7
20260906113049 75 180 0.0 2.0 0.00 0.00 0.00 70 1015.3
20260906111608 75 186 0.0 5.0 0.00 0.00 0.00 69 1015.0
20260906110053 76 217 0.0 5.0 0.00 0.00 0.00 69 1014.5
20260906104549 76 184 2.0 5.0 0.00 0.00 0.00 69 1014.3
20260906103055 76 200 1.0 4.0 0.00 0.00 0.00 69 1014.4
20260906101552 75 145 1.0 4.0 0.00 0.00 0.00 70 1014.3
20260906100108 75 146 1.0 4.0 0.00 0.00 0.00 71 1014.3
20260906094559 75 221 1.0 3.0 0.00 0.00 0.00 72 1014.3
20260906093056 75 169 1.0 3.0 0.00 0.00 0.00 73 1014.4
20260906091551 74 122 1.0 3.0 0.00 0.00 0.00 74 1014.2
20260906090100 74 0 0.0 1.0 0.00 0.00 0.00 74 1014.1
20260906084555 75 124 0.0 2.0 0.00 0.00 0.00 73 1014.2
20260906083057 75 206 0.0 2.0 0.00 0.00 0.00 73 1014.2
20260906081553 75 140 0.0 2.0 0.00 0.00 0.00 75 1014.4
20260906080057 75 142 1.0 3.0 0.00 0.00 0.00 75 1014.4
20260906074600 74 155 0.0 0.0 0.00 0.00 0.00 78 1014.4
20260906073054 73 155 0.0 0.0 0.00 0.00 0.00 81 1014.5
20260906071600 73 0 0.0 0.0 0.00 0.00 0.00 80 1014.4
20260906070051 74 0 0.0 0.0 0.00 0.00 0.00 78 1014.5
20260906064556 74 152 0.0 0.0 0.00 0.00 0.00 78 1014.4
20260906063057 74 0 0.0 1.0 0.00 0.00 0.00 78 1014.2
20260906061558 74 0 0.0 1.0 0.00 0.00 0.00 78 1014.3
20260906060051 74 149 0.0 1.0 0.00 0.00 0.00 78 1014.1
20260906054556 75 131 0.0 1.0 0.00 0.00 0.00 78 1013.9
20260906053055 75 0 0.0 2.0 0.00 0.00 0.00 77 1014.0
20260906051602 75 88 1.0 5.0 0.00 0.00 0.00 76 1014.0
20260906044555 77 0 0.0 1.0 0.00 0.00 0.00 73 1014.0
20260906043053 77 206 0.0 1.0 0.00 0.00 0.00 72 1014.0
20260906041555 78 179 0.0 2.0 0.00 0.00 0.00 71 1013.9
20260906040049 78 213 0.0 1.0 0.00 0.00 0.00 71 1013.9
20260906034555 78 0 0.0 2.0 0.00 0.00 0.00 69 1014.2
20260906033053 79 0 0.0 2.0 0.00 0.00 0.00 67 1014.2
20260906031549 79 0 0.0 2.0 0.00 0.00 0.00 65 1013.9
20260906024616 80 110 0.0 2.0 0.00 0.00 0.00 62 1013.4
20260906023051 81 145 1.0 2.0 0.00 0.00 0.00 61 1013.3
20260906021551 82 0 0.0 3.0 0.00 0.00 0.00 59 1013.2
20260906020051 83 176 0.0 3.0 0.00 0.00 0.00 57 1013.1
20260906014602 84 148 1.0 2.0 0.00 0.00 0.00 56 1012.8
20260906013052 85 168 1.0 3.0 0.00 0.00 0.00 54 1012.5
20260906011552 86 118 1.0 3.0 0.00 0.00 0.00 52 1012.5
20260906010059 87 142 1.0 5.0 0.00 0.00 0.00 49 1012.7
20260906004549 89 111 2.0 4.0 0.00 0.00 0.00 46 1012.6
20260906003110 90 204 1.0 5.0 0.00 0.00 0.00 44 1012.7
20260906001553 92 194 1.0 6.0 0.00 0.00 0.00 42 1012.6
20260905234546 93 131 3.0 7.0 0.00 0.00 0.00 40 1012.7
20260905233053 94 219 3.0 6.0 0.00 0.00 0.00 40 1012.6
20260905231555 94 168 4.0 10.0 0.00 0.00 0.00 40 1012.7
20260905230053 93 158 4.0 15.0 0.00 0.00 0.00 41 1012.8
20260905224556 93 283 4.0 13.0 0.00 0.00 0.00 37 1013.0
20260905223055 93 106 5.0 10.0 0.00 0.00 0.00 40 1012.7
20260905221552 90 158 4.0 12.0 0.00 0.00 0.00 46 1012.6
20260905220051 87 188 6.0 14.0 0.00 0.00 0.00 51 1012.7
20260905214547 86 229 7.0 15.0 0.00 0.00 0.00 50 1012.9
20260905213054 88 198 5.0 11.0 0.00 0.00 0.00 45 1012.9
20260905211551 89 148 5.0 14.0 0.00 0.00 0.00 46 1012.9
20260905210046 90 133 5.0 14.0 0.00 0.00 0.00 45 1013.1
20260905204600 93 194 4.0 15.0 0.00 0.00 0.00 42 1012.8
20260905203054 97 143 7.0 13.0 0.00 0.00 0.00 40 1012.9
20260905201554 99 128 4.0 13.0 0.00 0.00 0.00 37 1012.9